[[{"header":{"parameterUnit":"m.s-1","parameterCategory":1,"la1":30.2991,"la2":30.254,"lo1":-89.0895,"lo2":-89.0444,"dy":0.0017,"dx":0.0017,"nx":28,"ny":28,"refTime":"2024-11-26T09:00:00:Z","depth":0,"parameterNumber":2,"parameterNumberName":"U-component_of_WINDS"},"data":[0,0,0,0,0,0,0,0,0,0,0,0,0,0,0,0,0,0,0,0,0,0,0,0,0,0,0,0,0,0,0,0,0,0,0,0,0,0,0,0,0,0,0,0,0,0,0,0,0,0,0,0,0,0,0,0,0,0,0.6191,0.6191,0,0.6181,0.6181,0.6181,0.6149,0.6149,0.6148,0.6147,0.6138,0.6139,0.6139,0,0,0,0,0,0,0,0,0,0,0,0,0,0.6186,0.6186,0.6191,0.6191,0.6191,0.6181,0.6181,0.6181,0.6149,0.6149,0.6148,0.6147,0.6138,0.6138,0.6139,0,0,0,0,0,0,0,0,0,0,0,0,0,0.6183,0.6186,0.6191,0.6174,0.6172,0.6181,0.6181,0.6181,0.615,0.6149,0.6148,0.6147,0.6138,0.6138,0.6139,0.6164,0,0,0.6141,0.6141,0,0,0,0,0,0,0,0,0.6183,0.6183,0.6177,0.6175,0.6173,0.6165,0.6176,0.6175,0.615,0.6158,0.6147,0.6146,0.6148,0.6148,0.6148,0.6163,0.6163,0.6141,0.6141,0.6142,0.6142,0,0,0,0,0,0,0,0.6184,0.6184,0.6187,0.6177,0.6175,0.6168,0.6166,0.6175,0.6159,0.6158,0.6155,0.6154,0.6147,0.6148,0.6148,0.6163,0.6141,0.6141,0.6142,0.6142,0.62,0.6201,0,0,0,0,0,0,0.6186,0.6184,0.6187,0.6187,0.6176,0.6169,0.6167,0.6169,0.6159,0.6157,0.6155,0.6153,0.6147,0.6147,0.6147,0.6177,0.6142,0.6142,0.6143,0.6198,0.62,0.6201,0,0,0,0,0,0,0.6186,0.6187,0.6188,0.6185,0.6184,0.617,0.6172,0.6169,0.617,0.6157,0.6155,0.6159,0.6146,0.6147,0.616,0.6176,0.6142,0.6143,0.6197,0.6199,0.62,0.6235,0,0,0,0,0,0,0.6186,0.6187,0.6195,0.6185,0.6185,0.62,0.6173,0.617,0.6171,0.6168,0.616,0.6158,0.6146,0.6159,0.6161,0.6176,0.6143,0.6196,0.6198,0.62,0.6232,0.6238,0.6242,0,0,0,0,0,0.6186,0.6205,0.6196,0.6196,0.6195,0.6201,0.6201,0.6186,0.6172,0.6181,0.6174,0.6158,0.6174,0.6161,0.6162,0.6178,0.6194,0.6197,0.62,0.623,0.6237,0.6242,0,0,0,0,0,0,0.6218,0.6204,0.6193,0.6209,0.6207,0.6196,0.6206,0.6193,0.6195,0.6192,0.6174,0.6173,0.6189,0.6185,0.6171,0.6202,0.6182,0.6185,0.6205,0.6211,0.6215,0.6216,0.6144,0,0,0,0,0,0.6226,0.6232,0.622,0.6236,0.6235,0.6221,0.6223,0.6212,0.6209,0.6208,0.6201,0.6199,0.6203,0.6207,0.621,0.6232,0.623,0.6243,0.6248,0.6252,0.6255,0.6268,0.6274,0.621,0.621,0.621,0,0,0.6245,0.6238,0.6242,0.6242,0.6238,0.6246,0.622,0.6228,0.6234,0.6209,0.6222,0.6217,0.6213,0.6231,0.6239,0.6228,0.6273,0.6256,0.6259,0.626,0.6271,0.6277,0.6283,0.6211,0.6211,0.6211,0,0,0.6282,0.6277,0.629,0.6288,0.6283,0.6274,0.6277,0.6269,0.6265,0.6277,0.6259,0.6266,0.6274,0.6272,0.6273,0.6312,0.6298,0.6313,0.6339,0.6352,0.6357,0.6361,0.6376,0.6382,0.6316,0.6316,0.6316,0,0.6306,0.6315,0.6299,0.6309,0.631,0.6288,0.6302,0.63,0.6297,0.6299,0.6287,0.6298,0.6293,0.6312,0.6322,0.6322,0.6326,0.6314,0.6357,0.6362,0.6366,0.638,0.6385,0.6318,0.6318,0.6318,0.6318,0,0.6345,0.6352,0.6363,0.6361,0.6363,0.6375,0.6362,0.6366,0.6356,0.6348,0.6362,0.6357,0.636,0.6363,0.6353,0.6381,0.6375,0.636,0.6339,0.6374,0.6387,0.6392,0.6321,0.6321,0.632,0.6319,0,0,0.6401,0.6391,0.6395,0.6395,0.6388,0.6394,0.6406,0.6408,0.6413,0.6412,0.6422,0.643,0.6418,0.6418,0.6408,0.6419,0.6452,0.6403,0.6403,0.6413,0.6484,0.6495,0.6501,0.6442,0.6443,0.6444,0.6484,0,0.6437,0.6456,0.6442,0.6464,0.6471,0.6451,0.6461,0.6459,0.6453,0.6459,0.6453,0.6459,0.6441,0.6442,0.6452,0.6445,0.6466,0.6442,0.6453,0.6453,0.6455,0.6508,0.6519,0.6557,0.6489,0.649,0.6491,0,0.6481,0.6482,0.6505,0.6498,0.6501,0.651,0.6513,0.6518,0.6516,0.6511,0.6513,0.65,0.6512,0.6492,0.6509,0.6494,0.6497,0.6495,0.6496,0.6497,0.6474,0.6511,0.6569,0.6575,0.6498,0.6498,0.6497,0,0.6521,0.6528,0.6543,0.6543,0.6536,0.6543,0.6541,0.6538,0.6541,0.6543,0.6545,0.6549,0.6551,0.6555,0.6544,0.653,0.6564,0.6542,0.6561,0.6561,0.6569,0.6569,0.6629,0.6571,0.657,0.657,0.657,0,0.6563,0.6577,0.6561,0.657,0.6586,0.6571,0.6588,0.6584,0.6582,0.659,0.6573,0.6582,0.6567,0.6575,0.6566,0.6583,0.6584,0.6581,0.6579,0.6583,0.6583,0.6585,0.6583,0.6572,0.6572,0.6571,0.6571,0,0.661,0.6599,0.6614,0.6606,0.6605,0.6618,0.6612,0.662,0.6614,0.6625,0.6627,0.6617,0.6625,0.6615,0.6622,0.6616,0.6639,0.6633,0.664,0.6638,0.6658,0.6657,0.6722,0.6731,0.6666,0.6667,0.6667,0,0.6637,0.6648,0.6642,0.6647,0.6645,0.6653,0.6656,0.6642,0.6647,0.6646,0.6655,0.6662,0.6667,0.6681,0.6675,0.6681,0.6675,0.6698,0.6676,0.668,0.6677,0.6676,0.6678,0.6702,0.6703,0.6704,0.6704,0,0.6688,0.6682,0.6687,0.6691,0.6695,0.6697,0.6699,0.6704,0.669,0.6696,0.6704,0.6708,0.6715,0.6723,0.6727,0.6726,0.6714,0.6711,0.6716,0.672,0.6725,0.6724,0.6653,0.671,0.6709,0.6709,0.6708,0.6708,0.6726,0.6736,0.6733,0.674,0.6739,0.6741,0.6749,0.6744,0.6751,0.6756,0.6748,0.6759,0.6758,0.6763,0.6763,0.6772,0.6763,0.6769,0.6771,0.6773,0.6777,0.6723,0.6773,0.6773,0.6773,0.6772,0.6772,0,0.6777,0.6774,0.6781,0.6783,0.6789,0.6776,0.6777,0.6783,0.6792,0.6793,0.6798,0.6809,0.6816,0.6811,0.6818,0.6827,0.6821,0.6829,0.6828,0.6829,0.6784,0.678,0.6833,0.6833,0.6833,0.6833,0.6833,0.6833,0.6803,0.6819,0.6813,0.6829,0.6827,0.6837,0.6839,0.6841,0.6842,0.6854,0.686,0.6857,0.6856,0.6863,0.687,0.6868,0.6872,0.6882,0.6879,0.6837,0.6831,0.6826,0.6821,0.6883,0.6883,0.6922,0.6922,0.6923]},{"header":{"parameterUnit":"m.s-1","parameterCategory":1,"la1":30.2991,"la2":30.254,"lo1":-89.0895,"lo2":-89.0444,"dy":0.0017,"dx":0.0017,"nx":28,"ny":28,"refTime":"2024-11-26T09:00:00:Z","depth":0,"parameterNumber":3,"parameterNumberName":"V-component_of_WINDS"},"data":[0,0,0,0,0,0,0,0,0,0,0,0,0,0,0,0,0,0,0,0,0,0,0,0,0,0,0,0,0,0,0,0,0,0,0,0,0,0,0,0,0,0,0,0,0,0,0,0,0,0,0,0,0,0,0,0,0,0,-3.6542,-3.6544,0,-3.6686,-3.6687,-3.6689,-3.6736,-3.6736,-3.6735,-3.6734,-3.6875,-3.688,-3.6884,0,0,0,0,0,0,0,0,0,0,0,0,0,-3.6306,-3.631,-3.6542,-3.6544,-3.6546,-3.6685,-3.6687,-3.6689,-3.6736,-3.6736,-3.6735,-3.6734,-3.6874,-3.6879,-3.6884,0,0,0,0,0,0,0,0,0,0,0,0,0,-3.6425,-3.6311,-3.6542,-3.6586,-3.6592,-3.6685,-3.6687,-3.669,-3.6736,-3.6735,-3.6735,-3.6734,-3.6872,-3.6879,-3.6885,-3.6943,0,0,-3.6905,-3.6907,0,0,0,0,0,0,0,0,-3.6418,-3.6433,-3.6578,-3.6583,-3.659,-3.6692,-3.6656,-3.6774,-3.6737,-3.6681,-3.6734,-3.6733,-3.6815,-3.6826,-3.6855,-3.6949,-3.6955,-3.6905,-3.6909,-3.6912,-3.6914,0,0,0,0,0,0,0,-3.641,-3.6427,-3.6599,-3.658,-3.6587,-3.6598,-3.6614,-3.6678,-3.6751,-3.6686,-3.669,-3.6706,-3.6818,-3.6848,-3.6858,-3.6957,-3.6905,-3.6911,-3.6915,-3.6917,-3.711,-3.7111,0,0,0,0,0,0,-3.6395,-3.642,-3.6594,-3.6603,-3.65,-3.6603,-3.6621,-3.666,-3.6751,-3.6764,-3.6707,-3.6708,-3.6838,-3.6851,-3.6863,-3.6939,-3.6912,-3.6918,-3.6922,-3.7108,-3.711,-3.7111,0,0,0,0,0,0,-3.6389,-3.641,-3.6588,-3.6513,-3.6536,-3.6608,-3.6652,-3.6663,-3.6694,-3.6767,-3.6779,-3.6725,-3.6837,-3.6854,-3.6924,-3.6945,-3.6921,-3.6927,-3.7107,-3.7109,-3.7111,-3.709,0,0,0,0,0,0,-3.6382,-3.6407,-3.6431,-3.6513,-3.654,-3.6647,-3.6653,-3.6667,-3.6706,-3.6708,-3.6787,-3.6799,-3.6838,-3.6914,-3.693,-3.6953,-3.6932,-3.7105,-3.7108,-3.711,-3.7089,-3.7091,-3.7092,0,0,0,0,0,-3.6374,-3.6417,-3.6432,-3.6452,-3.6571,-3.6648,-3.6664,-3.671,-3.6707,-3.6731,-3.6778,-3.6796,-3.694,-3.6921,-3.6939,-3.6964,-3.7104,-3.7107,-3.711,-3.7088,-3.709,-3.7092,0,0,0,0,0,0,-3.6333,-3.6429,-3.6446,-3.6517,-3.6575,-3.6656,-3.6688,-3.671,-3.6768,-3.6767,-3.682,-3.6837,-3.6903,-3.6941,-3.6918,-3.7027,-3.7023,-3.7029,-3.7,-3.7003,-3.7004,-3.6994,-3.6937,0,0,0,0,0,-3.6332,-3.6389,-3.6469,-3.6524,-3.6552,-3.6615,-3.665,-3.6681,-3.6742,-3.6765,-3.6817,-3.6874,-3.6933,-3.6969,-3.7027,-3.7094,-3.7113,-3.7121,-3.7123,-3.7124,-3.7129,-3.717,-3.7175,-3.712,-3.712,-3.712,0,0,-3.6331,-3.6391,-3.6423,-3.6518,-3.6566,-3.6622,-3.6635,-3.6693,-3.6736,-3.6774,-3.6844,-3.6884,-3.6951,-3.702,-3.7054,-3.7054,-3.7148,-3.7127,-3.7127,-3.7132,-3.7173,-3.7178,-3.7183,-3.7122,-3.7122,-3.7122,0,0,-3.6359,-3.6409,-3.6463,-3.6511,-3.6585,-3.6627,-3.664,-3.6719,-3.6748,-3.682,-3.685,-3.69,-3.6999,-3.7046,-3.7083,-3.7132,-3.7152,-3.7149,-3.7157,-3.7196,-3.7201,-3.7205,-3.7224,-3.723,-3.7154,-3.7154,-3.7154,0,-3.6348,-3.6436,-3.6486,-3.6545,-3.6586,-3.6626,-3.6681,-3.6725,-3.6812,-3.6839,-3.6839,-3.6965,-3.7013,-3.7095,-3.7108,-3.7136,-3.7152,-3.714,-3.7196,-3.7201,-3.7206,-3.7224,-3.7231,-3.7153,-3.7153,-3.7153,-3.7153,0,-3.642,-3.648,-3.6514,-3.6601,-3.6646,-3.6702,-3.676,-3.68,-3.6827,-3.6869,-3.6942,-3.7001,-3.7072,-3.7094,-3.7119,-3.7181,-3.7179,-3.7186,-3.7184,-3.7209,-3.7228,-3.7235,-3.7152,-3.7152,-3.7152,-3.7153,0,0,-3.6424,-3.6541,-3.6553,-3.6594,-3.668,-3.6727,-3.6784,-3.6857,-3.689,-3.6949,-3.7,-3.7083,-3.7093,-3.7134,-3.7166,-3.72,-3.7238,-3.7204,-3.7207,-3.721,-3.731,-3.7305,-3.7312,-3.7251,-3.7253,-3.7254,-3.7305,0,-3.6464,-3.6572,-3.662,-3.6705,-3.6762,-3.6803,-3.6853,-3.6911,-3.6952,-3.7005,-3.705,-3.7109,-3.7116,-3.7142,-3.7177,-3.7225,-3.7259,-3.7222,-3.7298,-3.73,-3.7281,-3.7322,-3.7315,-3.7361,-3.7312,-3.7314,-3.7315,0,-3.6524,-3.6588,-3.6679,-3.6761,-3.6787,-3.6832,-3.6903,-3.6954,-3.702,-3.7048,-3.7097,-3.7128,-3.719,-3.7183,-3.7269,-3.7244,-3.7278,-3.7306,-3.7309,-3.7318,-3.7309,-3.7333,-3.7376,-3.7383,-3.7326,-3.7325,-3.7324,0,-3.6521,-3.6628,-3.6698,-3.6732,-3.6828,-3.6859,-3.69,-3.6966,-3.7007,-3.7069,-3.7096,-3.7163,-3.72,-3.7251,-3.7299,-3.729,-3.7382,-3.7379,-3.7406,-3.7405,-3.7424,-3.7422,-3.7475,-3.7444,-3.7444,-3.7444,-3.7444,0,-3.6561,-3.6615,-3.6698,-3.6741,-3.6804,-3.6859,-3.6919,-3.6963,-3.7022,-3.7074,-3.7111,-3.7158,-3.7219,-3.7274,-3.7312,-3.7379,-3.7394,-3.7418,-3.7428,-3.7416,-3.7413,-3.7439,-3.7437,-3.7446,-3.7445,-3.7445,-3.7445,0,-3.6567,-3.6624,-3.6703,-3.6789,-3.6812,-3.6855,-3.6928,-3.6971,-3.7015,-3.708,-3.7098,-3.7167,-3.7234,-3.7287,-3.7373,-3.7399,-3.747,-3.748,-3.7448,-3.7453,-3.7479,-3.7476,-3.755,-3.7563,-3.7523,-3.7523,-3.7523,0,-3.6589,-3.6633,-3.6725,-3.6763,-3.6805,-3.6866,-3.691,-3.6966,-3.7009,-3.709,-3.7123,-3.7193,-3.7253,-3.7358,-3.7414,-3.7481,-3.7493,-3.7515,-3.7503,-3.7491,-3.7495,-3.7493,-3.7498,-3.7516,-3.7516,-3.7516,-3.7516,0,-3.6622,-3.665,-3.6712,-3.6785,-3.6836,-3.6896,-3.6956,-3.6985,-3.7051,-3.7098,-3.7169,-3.7215,-3.7306,-3.7375,-3.7448,-3.7489,-3.7514,-3.752,-3.753,-3.7518,-3.7499,-3.7511,-3.7453,-3.7518,-3.7518,-3.7517,-3.7517,-3.7517,-3.6638,-3.668,-3.6753,-3.6821,-3.6873,-3.6929,-3.6975,-3.7026,-3.7087,-3.7166,-3.7195,-3.7268,-3.7335,-3.7437,-3.7479,-3.7536,-3.7537,-3.7552,-3.7556,-3.7559,-3.7558,-3.7489,-3.7549,-3.7549,-3.7549,-3.7549,-3.7549,0,-3.6675,-3.6725,-3.6787,-3.6872,-3.6926,-3.6948,-3.7016,-3.7059,-3.7124,-3.7186,-3.7244,-3.7326,-3.7395,-3.7458,-3.7529,-3.7563,-3.7576,-3.7579,-3.7578,-3.7587,-3.7551,-3.7536,-3.7568,-3.7568,-3.7568,-3.7568,-3.7568,-3.7568,-3.6701,-3.6774,-3.681,-3.6909,-3.6958,-3.7032,-3.7069,-3.7121,-3.7171,-3.7262,-3.732,-3.7362,-3.7424,-3.7501,-3.7564,-3.7581,-3.7606,-3.7607,-3.7626,-3.7592,-3.7589,-3.7587,-3.7573,-3.7612,-3.7612,-3.7658,-3.7658,-3.7659]}]]